Regional Weather Roundup
Issued by NWS Little Rock, AR

Home | Current Version | Previous Version | Text Only | Print | Product List | Glossary On
Versions: 1 2 3 4 5 6 7 8 9 10 11 12 13 14 15 16 17 18 19 20 21 22 23 24 25 26 27 28 29 30 31 32 33 34 35 36 37
000
ASUS44 KLZK 230305
RWRLZK

WEATHER ROUNDUP FOR ARKANSAS
NATIONAL WEATHER SERVICE LITTLE ROCK AR
1000 PM CDT WED OCT 22 2014

NOTE: "FAIR" INDICATES FEW OR NO CLOUDS BELOW 12,000 FEET WITH NO
SIGNIFICANT WEATHER AND/OR OBSTRUCTIONS TO VISIBILITY.

ARZ001-003-010-029-230400-
NORTHWEST ARKANSAS

CITY           SKY/WX    TMP DP  RH WIND       PRES   REMARKS
FAYETTEVILLE   CLEAR     51  50  96 CALM      30.18R
FORT SMITH     CLEAR     61  52  72 E3        30.16R
HARRISON       CLEAR     51  48  89 S7        30.19S
BENTONVILLE    CLEAR     57  48  72 S6        30.17S
ROGERS         CLEAR     58  52  80 SE6       30.19R
SILOAM SPGS    CLEAR     57  46  67 SE8       30.18R
HIGHFILL       CLEAR     57  51  80 S7        30.17R
$$

ARZ004-005-016-230400-
NORTH CENTRAL ARKANSAS

CITY           SKY/WX    TMP DP  RH WIND       PRES   REMARKS
BATESVILLE     CLEAR     48  43  81 CALM      30.22R
FLIPPIN        CLEAR     52  45  76 CALM      30.20F
MTN HOME       CLEAR     54  44  69 SE6       30.20S
$$

ARZ040-041-230400-
WEST CENTRAL ARKANSAS

CITY           SKY/WX    TMP DP  RH WIND       PRES   REMARKS
MENA           CLEAR     54  54 100 CALM      30.19R
MOUNT IDA      CLEAR     53  51  93 CALM      30.17R
$$

ARZ009-017-025-026-028-230400-
NORTHEAST ARKANSAS

CITY           SKY/WX    TMP DP  RH WIND       PRES   REMARKS
CORNING        FAIR      50  45  81 NE5       30.22R
JONESBORO      CLEAR     52  44  74 NE6       30.21R
NEWPORT        CLEAR     51  44  77 NW6       30.23R
WALNUT RIDGE   CLEAR     52  41  66 N3        30.20R
BLYTHEVILLE    CLEAR     49  44  83 CALM      30.21R
$$

ARZ022-023-033-042-044-230400-
CENTRAL ARKANSAS

CITY           SKY/WX    TMP DP  RH WIND       PRES   REMARKS
LITTLE ROCK    CLEAR     55  46  71 CALM      30.21R
N LITTLE ROCK  CLEAR     56  46  70 NE7       30.21R
JACKSONVILLE   CLEAR     48  44  85 CALM      30.21R
SEARCY         CLEAR     49  44  83 CALM      30.22R
HOT SPRINGS    CLEAR     53  49  86 CALM      30.20R
RUSSELLVILLE   CLEAR     55  50  83 E3        30.19S
$$

ARZ036-230400-
EAST ARKANSAS

CITY           SKY/WX    TMP DP  RH WIND       PRES   REMARKS
WEST MEMPHIS   CLEAR     53  45  74 CALM      30.17F
$$

ARZ050-053-066-070-073-230400-
SOUTHWEST ARKANSAS

CITY           SKY/WX    TMP DP  RH WIND       PRES   REMARKS
ARKADELPHIA    FAIR      55  55 100 CALM      30.20R
CAMDEN         CLEAR     52  48  87 CALM      30.19R
TEXARKANA      CLEAR     59  52  77 CALM      30.18R
EL DORADO      CLEAR     55  51  86 N3        30.18R
DE QUEEN       CLEAR     55  54  96 CALM      30.15S
$$

ARZ056-057-069-230400-
SOUTHEAST ARKANSAS

CITY           SKY/WX    TMP DP  RH WIND       PRES   REMARKS
PINE BLUFF     CLEAR     52  45  77 N3        30.19R
STUTTGART      CLEAR     50  43  76 N8        30.20R
MONTICELLO     CLEAR     51  47  86 CALM      30.18R

$$





USA.gov is the U.S. government's official web portal to all federal, state and local government web resources and services.